VE2JOS-13 Weather Reports


time (UTC)temp
F
wind
direction
speed
knots
gust
knots
rain 1hr
in
rain 24hr
in
rain mn
in
humidity
%
barometer
mb
20260507055023 45 242 0.0 2.6 0.00 0.00 0.00 8
20260507053331 45 268 0.0 1.7 0.00 0.00 0.00 8
20260507051435 45 130 0.0 0.9 0.00 0.00 0.00 8
20260507045817 45 235 0.9 1.7 0.00 0.00 0.00 8
20260507043853 45 219 0.9 1.7 0.00 0.00 0.00 8
20260507042018 45 0 0.0 0.9 0.00 0.00 0.00 8
20260507034334 46 0 0.0 0.0 0.00 0.00 0.00 8
20260507032418 46 256 0.0 0.0 0.00 0.00 0.00 8
20260507030713 46 252 0.0 0.0 0.00 0.00 0.00 8
20260507025103 46 0 0.0 0.0 0.00 0.00 0.00 8
20260507023153 46 0 0.0 0.0 0.00 0.00 0.00 8
20260507021432 46 249 0.9 1.7 0.00 0.00 0.00 8
20260507021358 46 249 0.9 1.7 0.00 0.00 0.00 8
20260507015533 46 248 0.0 0.0 0.00 0.00 0.00 8
20260507013928 46 0 0.0 0.0 0.00 0.00 0.00 8
20260507012053 46 0 0.0 0.0 0.00 0.00 0.00 8
20260507010233 47 204 0.9 0.9 0.00 0.00 0.00 8
20260507004533 47 234 0.0 0.0 0.00 0.00 0.00 8
20260507002738 47 220 0.9 1.7 0.00 0.00 0.00 8
20260507001047 47 219 0.0 0.9 0.00 0.00 0.00 8
20260506235335 47 209 0.9 0.0 0.00 0.00 0.00 8
20260506233530 47 0 0.0 0.0 0.00 0.00 0.00 8
20260506231538 48 0 0.0 0.0 0.00 0.00 0.00 8
20260506225808 48 0 0.0 0.0 0.00 0.00 0.00 8
20260506224123 48 0 0.0 0.0 0.00 0.00 0.00 8
20260506222147 49 246 0.0 0.0 0.00 0.00 0.00 7
20260506220228 49 0 0.0 0.0 0.00 0.00 0.00 8
20260506214247 48 0 0.0 0.0 0.00 0.00 0.00 8
20260506212503 48 0 0.0 0.0 0.00 0.00 0.00 8
20260506210627 48 248 0.9 1.7 0.00 0.00 0.00 7
20260506204843 48 208 0.0 1.7 0.00 0.00 0.00 7
20260506202912 48 0 0.0 0.0 0.00 0.00 0.00 7
20260506200918 48 247 0.0 0.0 0.00 0.00 0.00 7
20260506195158 48 235 0.9 1.7 0.00 0.00 0.00 8
20260506193352 48 220 0.0 0.9 0.00 0.00 0.00 7
20260506191643 48 0 0.0 0.0 0.00 0.00 0.00 8
20260506185718 48 247 0.0 0.0 0.00 0.00 0.00 8
20260506183933 48 269 0.9 0.9 0.00 0.00 0.00 8
20260506182218 48 219 0.9 1.7 0.00 0.00 0.00 8
20260506180537 49 0 0.0 1.7 0.00 0.00 0.00 8
20260506174634 48 251 0.0 0.9 0.00 0.00 0.00 8
20260506172806 46 181 0.0 0.9 0.00 0.00 0.00 9
20260506170827 45 217 1.7 2.6 0.01 0.00 0.00 8
20260506164903 46 173 0.9 1.7 0.03 0.00 0.00 9
20260506163228 46 0 0.0 0.0 0.03 0.00 0.00 9
20260506161337 44 223 0.9 1.7 0.03 0.00 0.00 9
20260506155603 44 241 0.0 0.0 0.01 0.00 0.00 9
20260506153827 45 252 0.0 0.0 0.01 0.00 0.00 9
20260506151843 46 0 0.0 0.0 0.07 0.00 0.00 9
20260506150058 45 0 0.0 0.0 0.10 0.00 0.00 9
20260506144428 44 0 0.0 0.0 0.10 0.00 0.00 9
20260506142443 44 241 0.0 0.9 0.07 0.00 0.00 9
20260506140548 45 236 0.9 1.7 0.04 0.00 0.00 9
20260506134747 45 207 0.9 1.7 0.03 0.00 0.00 9
20260506133046 45 208 1.7 1.7 0.03 0.00 0.00 9
20260506131314 45 230 0.9 0.9 0.02 0.00 0.00 9
20260506125708 46 208 0.0 0.9 0.00 0.00 0.00 9
20260506123923 46 236 0.0 0.0 0.02 0.00 0.00 9
20260506122127 45 235 1.7 2.6 0.02 0.00 0.00 9
20260506120528 45 212 1.7 2.6 0.03 0.00 0.00 9
20260506114823 45 258 0.0 0.9 0.03 0.00 0.00 8
20260506113008 46 252 0.0 0.9 0.02 0.00 0.00 8
20260506111404 46 257 1.7 2.6 0.01 0.00 0.00 8
20260506105606 47 223 0.9 1.7 0.01 0.00 0.00 8
20260506103643 48 181 0.9 0.9 0.00 0.00 0.00 7
20260506101823 48 227 0.9 1.7 0.00 0.00 0.00 7
20260506100023 49 0 0.0 0.0 0.00 0.00 0.00 7
20260506094034 50 0 0.0 0.9 0.00 0.00 0.00 7
20260506092207 50 0 0.0 0.0 0.00 0.00 0.00 8
20260506090413 50 260 0.0 0.0 0.00 0.00 0.00 8
20260506084543 50 251 0.0 0.0 0.00 0.00 0.00 8
20260506082823 51 0 0.0 0.0 0.00 0.00 0.00 8
20260506081228 51 241 0.0 0.0 0.00 0.00 0.00 8
20260506073458 51 237 0.0 0.9 0.00 0.00 0.00 8
20260506071547 51 260 0.0 0.0 0.00 0.00 0.00 8
20260506062023 52 238 0.9 1.7 0.00 0.00 0.00 8